Home   Weather   Tábor   Past weeks

Flag for Czech Republic Past Weather in Tábor, Czech Republic — Yesterday and Last 2 Weeks

Now
15 °F

Fog.


Feels Like: 9 °F
Forecast: -2 / 15 °F
Wind: 3 mph from East

Location: Kocelovice

Current Time: Jan 18, 2017 at 11:40:39 pm

Latest Report: Jan 18, 2017 at 10:00 pm


Visibility: 4 mi

Pressure: 30.73 "Hg

Humidity: 93%

Dew Point: 13 °F

Location of TáborLocation

Past Weather in Tábor — Graph

°F

Tábor Temperature Yesterday

Maximum temperature yesterday: 24 °F (at 5:00 pm)
Minimum temperature yesterday: 19 °F (at 2:00 am)
Average temperature yesterday: 22 °F

High & Low Weather Summary for the Past Weeks

 TemperatureHumidityPressure
High39 °F (Jan 13, 6:00 am)100% (Jan 13, 1:00 am)30.76 "Hg (Jan 13, 1:00 am)
Low5 °F (Jan 7, 5:00 am)59% (Jan 7, 7:00 pm)29.29 "Hg (Jan 13, 7:00 am)
Average24 °F84%30.18 "Hg
* Reported Jan 3 10:00 pm — Jan 18 10:00 pm, Tábor, Weather by CustomWeather, © 2017

Note: Actual official high and low records may vary slightly from our data, if they occured in-between our weather recording intervals... More about our weather records

Advertising

Tábor Weather History for the Previous 24 Hours

Scroll right to see more
 ConditionsComfort  
Time TempWeatherWind HumidityBarometerVisibility
10:00 pm
Wed, Jan 18
15 °FFog.3 mph93%30.73 "Hg4 mi
9:00 pm16 °FFog.3 mph90%30.72 "Hg4 mi
8:00 pm15 °FFog.3 mph89%30.73 "Hg5 mi
7:00 pm17 °FFog.6 mph86%30.72 "Hg5 mi
6:00 pm18 °FFog.6 mph84%30.71 "Hg6 mi
5:00 pm20 °FClear.6 mph80%30.70 "Hg6 mi
4:00 pm22 °FSunny.5 mph77%30.69 "Hg6 mi
3:00 pm22 °FPassing clouds.6 mph75%30.68 "Hg6 mi
2:00 pm23 °FPassing clouds.7 mph75%30.68 "Hg6 mi
1:00 pm23 °FPassing clouds.6 mph73%30.68 "Hg7 mi
12:00 pm22 °FPartly sunny.7 mph76%30.70 "Hg7 mi
11:00 am22 °FOvercast.6 mph75%30.71 "Hg7 mi
10:00 am22 °FOvercast.6 mph80%30.71 "Hg7 mi
9:00 am22 °FOvercast.5 mph83%30.71 "Hg6 mi
8:00 am22 °FOvercast.5 mph82%30.69 "Hg7 mi
7:00 am22 °FOvercast.5 mph80%30.67 "Hg7 mi
6:00 am23 °FCold.5 mph73%30.66 "Hg11 mi
5:00 am22 °FCold.3 mph75%30.66 "Hg11 mi
4:00 am23 °FCold.6 mph76%30.66 "Hg11 mi
3:00 am23 °FCold.5 mph73%30.66 "Hg12 mi
2:00 am23 °FCold.6 mph76%30.67 "Hg12 mi
1:00 am23 °FSnow flurries. Overcast.6 mph79%30.67 "Hg12 mi
12:00 am23 °FCold.3 mph80%30.66 "Hg11 mi
11:00 pm
Tue, Jan 17
22 °FCold.2 mph81%30.66 "Hg12 mi
Weather by CustomWeather, © 2017

See weather overviewHow to use our weather pages